Regional Weather Roundup
Issued by NWS

Home | Current Version | Previous Version | Text Only | Print | Product List | Glossary On
Versions: 1 2 3 4 5 6 7 8 9 10 11 12 13 14 15 16 17 18 19 20 21 22 23 24 25 26 27 28 29 30 31 32 33 34 35 36 37 38 39 40 41 42 43 44 45 46 47 48 49 50
000
ASUS43 KLMK 300002
RWRKY
KENTUCKY REGIONAL WEATHER ROUNDUP
NATIONAL WEATHER SERVICE LOUISVILLE KY
800 PM EDT THU SEP 29 2016

NOTE "FAIR" INDICATES FEW OR NO CLOUDS BELOW 12,000 FEET
WITH NO SIGNIFICANT WEATHER AND/OR OBSTRUCTIONS TO VISIBILITY.

KYZ001>023-026-027-061>063-070>075-300100-
WESTERN AND SOUTH CENTRAL KENTUCKY

CITY           SKY/WX    TMP DP  RH WIND       PRES   REMARKS
PADUCAH        MOCLDY    62  55  77 NW8       30.12R
HENDERSON      MOCLDY    63  50  63 CALM      30.09S
OWENSBORO      MOCLDY   N/A N/A N/A N7        30.09S
HOPKINSVILLE   PTCLDY    60  55  85 W3        30.10S
BOWLING GREEN  CLOUDY    60  52  74 CALM      30.11R
GLASGOW        NOT AVBL
$$

KYZ024-025-028>034-038-045-046-053-300100-
NORTH CENTRAL KENTUCKY

CITY           SKY/WX    TMP DP  RH WIND       PRES   REMARKS
LOUISVILLE/SDF CLOUDY    61  53  75 SW8       30.09R
LOUISVILLE/LOU CLOUDY    60  51  72 S3        30.10R
FORT KNOX      CLOUDY    55  54  97 W2        30.09R
$$

KYZ035>037-039>044-047>052-055>060-089>105-300100-
NORTHEAST KENTUCKY

CITY           SKY/WX    TMP DP  RH WIND       PRES   REMARKS
LEXINGTON      CLOUDY    59  52  77 W3        30.09R
COVINGTON      MOCLDY    59  55  87 CALM      30.08R
FRANKFORT      CLOUDY    59  51  75 SW3       30.08R
$$

KYZ054-064>069-076>088-106>120-300100-
SOUTHEAST KENTUCKY

CITY           SKY/WX    TMP DP  RH WIND       PRES   REMARKS
JACKSON        LGT RAIN  56  53  90 CALM      30.07F
LONDON         CLOUDY    60  49  66 SW5       30.08R
SOMERSET       CLOUDY    55  46  71 NW6       30.10S
MIDDLESBORO    PTCLDY    56  52  85 CALM      30.09R
MONTICELLO     CLOUDY    57  51  80 W3        30.11S
$$





USA.gov is the U.S. government's official web portal to all federal, state and local government web resources and services.